Regional Weather Roundup
Issued by NWS

Home | Current Version | Previous Version | Text Only | Print | Product List | Glossary Off
Versions: 1 2 3 4 5 6 7 8 9 10 11 12 13 14 15 16 17 18 19 20 21 22 23 24 25 26 27 28 29 30 31 32 33 34 35 36 37 38 39 40 41 42 43 44 45 46 47 48 49 50

000
ASUS43 KFSD 291002
RWRSD

WEATHER ROUNDUP FOR SOUTH DAKOTA
NATIONAL WEATHER SERVICE SIOUX FALLS SD
500 AM CDT SAT AUG 29 2015

NOTE: "FAIR" INDICATES FEW OR NO CLOUDS BELOW 12,000 FEET WITH NO
SIGNIFICANT WEATHER AND/OR OBSTRUCTIONS TO VISIBILITY.


SDZ001>005-009-010-012>017-291100-
NORTHWEST AND NORTH CENTRAL SOUTH DAKOTA

CITY           SKY/WX    TMP DP  RH WIND       PRES   REMARKS
FAITH            N/A     66  51  58 W6        30.00S
MOBRIDGE       CLEAR     64  64 100 SE3       29.93S
$$

SDZ012>016-024>037-041>051-057-063-072>074-291100-
SOUTHWEST AND SOUTH CENTRAL SOUTH DAKOTA

CITY           SKY/WX    TMP DP  RH WIND       PRES   REMARKS
RAPID CTY ARPT PTCLDY    60  53  77 CALM      30.05S
PIERRE         PTCLDY    62  61  96 CALM      29.96F
CUSTER         CLEAR     63  43  48 W7        30.22F
ELLSWORTH AFB  PTCLDY    61  52  73 W3        30.04S
PHILIP         PTCLDY    60  58  92 CALM      30.01R
PINE RIDGE     CLEAR     53  48  83 CALM      30.09F
WINNER         FAIR      66  61  84 S12       30.01F
$$

SDZ004>011-016>023-039-040-291100-
NORTHEAST SOUTH DAKOTA

CITY           SKY/WX    TMP DP  RH WIND       PRES   REMARKS
ABERDEEN       CLEAR     62  60  93 S10       29.97S
WATERTOWN      CLEAR     57  55  93 S7        30.01R
BROOKINGS      PTCLDY    55  52  88 CALM      30.05S
$$

SDZ017-020-022-023-036>040-048>070-291100-
SOUTHEAST SOUTH DAKOTA

CITY           SKY/WX    TMP DP  RH WIND       PRES   REMARKS
SIOUX FALLS    CLEAR     54  53  97 CALM      30.04R
HURON          CLEAR     60  58  92 S9        30.00R
CHAMBERLAIN    CLEAR     61  61  99 S3        30.00S
MITCHELL       CLEAR     60  58  92 S8        30.02R
YANKTON          N/A     54  52  94 CALM      30.04R VSB<1/4
$$

ABBREVIATIONS USED IN REMARKS
   TC - TEMPERATURE IN CELSIUS
  WCI - WIND CHILL INDEX
   HX - HEAT INDEX
  VSB - VISIBILITY




USA.gov is the U.S. government's official web portal to all federal, state and local government web resources and services.